�N����,����,�~����,�C��,���x,�C��,����,���ϕ���,�ő�u�ԕ���,�ő厞����,���˗�,�I�_���x,�n�����x,�ő啗���N��,DTYPE
"18/10/28","00:10",0.0,10.7,89.4,1006.9,323.3,2.5,3.9,335.5,0.00,9.1,16.1,"00:09:04",1
"18/10/28","00:20",0.0,11.0,87.9,1006.7,324.6,2.8,4.1,326.7,0.00,9.1,15.9,"00:18:08",1
"18/10/28","00:30",0.0,11.1,86.1,1006.7,329.9,2.6,4.1,335.4,0.00,8.9,15.9,"00:23:54",1
"18/10/28","00:40",0.0,11.1,85.2,1007.1,328.4,3.0,4.9,343.6,0.00,8.8,15.8,"00:38:56",1
"18/10/28","00:50",0.0,11.1,84.8,1006.9,328.1,3.4,4.4,331.4,0.00,8.7,15.7,"00:45:44",1
"18/10/28","01:00",0.0,11.1,84.6,1007.1,329.6,3.0,4.2,310.3,0.00,8.6,15.7,"00:58:24",1
"18/10/28","01:10",0.0,11.1,84.6,1007.1,325.0,2.1,3.9,318.8,0.00,8.6,15.5,"01:00:08",1
"18/10/28","01:20",0.0,11.0,84.2,1007.1,326.9,1.8,3.4,319.8,0.00,8.5,15.8,"01:12:16",1
"18/10/28","01:30",0.0,10.5,84.1,1006.9,322.2,0.5,1.2,301.2,0.00,8.0,15.7,"01:29:44",1
"18/10/28","01:40",0.0,10.2,85.7,1006.9,307.7,1.0,1.9,339.7,0.00,8.0,15.4,"01:32:16",1
"18/10/28","01:50",0.0,10.5,86.7,1006.9,334.5,1.1,3.1,330.7,0.00,8.4,15.5,"01:43:28",1
"18/10/28","02:00",0.0,10.4,87.4,1006.7,332.1,0.8,2.5,347.8,0.00,8.4,15.6,"01:55:36",1
"18/10/28","02:10",0.0,10.6,86.4,1006.4,316.7,1.2,2.9,334.1,0.00,8.5,15.5,"02:00:58",1
"18/10/28","02:20",0.0,10.4,85.8,1006.9,292.4,0.8,1.6,290.5,0.00,8.2,15.4,"02:19:52",1
"18/10/28","02:30",0.0,10.0,85.6,1006.9,315.9,1.5,2.9,320.9,0.00,7.7,15.3,"02:26:16",1
"18/10/28","02:40",0.0,9.7,87.8,1006.7,289.3,1.3,1.9,299.0,0.00,7.8,15.0,"02:37:12",1
"18/10/28","02:50",0.0,10.1,88.2,1006.7,276.3,1.7,2.8,251.5,0.00,8.3,15.3,"02:48:56",1
"18/10/28","03:00",0.0,9.9,86.4,1006.7,282.1,1.7,2.7,241.5,0.00,7.8,15.2,"02:50:08",1
"18/10/28","03:10",0.0,9.9,88.7,1006.9,293.0,1.7,2.7,321.5,0.00,8.2,15.2,"03:05:28",1
"18/10/28","03:20",0.0,9.5,87.4,1006.9,325.5,1.8,2.7,346.3,0.00,7.6,15.3,"03:16:24",1
"18/10/28","03:30",0.0,9.1,89.2,1006.9,311.8,2.2,3.2,332.0,0.00,7.5,14.9,"03:20:48",1
"18/10/28","03:40",0.0,8.8,89.5,1006.4,290.6,1.3,1.9,284.6,0.00,7.2,15.2,"03:30:08",1
"18/10/28","03:50",0.0,8.7,90.4,1006.7,308.2,2.0,2.7,327.7,0.00,7.3,14.9,"03:46:24",1
"18/10/28","04:00",0.0,8.4,91.1,1006.4,298.8,1.3,1.8,308.8,0.00,7.1,14.9,"03:52:40",1
"18/10/28","04:10",0.0,8.1,91.3,1006.2,289.5,1.1,1.6,281.7,0.00,6.8,14.7,"04:06:00",1
"18/10/28","04:20",0.0,8.0,92.3,1006.4,306.9,2.2,3.1,321.2,0.00,6.9,14.7,"04:18:24",1
"18/10/28","04:30",0.0,8.3,92.5,1006.4,315.4,2.3,3.1,332.6,0.00,7.2,14.7,"04:22:48",1
"18/10/28","04:40",0.0,8.2,91.9,1006.4,299.4,1.7,2.4,315.3,0.00,7.0,14.8,"04:37:20",1
"18/10/28","04:50",0.0,8.2,92.8,1006.2,309.2,1.8,2.4,320.8,0.00,7.1,14.7,"04:40:40",1
"18/10/28","05:00",0.0,8.0,92.7,1006.9,276.6,1.0,2.0,290.3,0.00,6.9,14.7,"04:55:28",1
"18/10/28","05:10",0.0,8.2,94.1,1006.7,285.2,1.6,2.5,297.2,0.00,7.3,14.4,"05:02:08",1
"18/10/28","05:20",0.0,8.7,93.1,1007.1,295.9,1.6,2.4,330.1,0.00,7.7,14.4,"05:15:28",1
"18/10/28","05:30",0.0,8.8,92.1,1007.1,293.1,1.2,3.1,319.1,0.00,7.6,14.3,"05:22:16",1
"18/10/28","05:40",0.0,9.1,93.0,1007.1,248.6,1.0,2.4,266.9,0.00,8.1,14.5,"05:38:08",1
"18/10/28","05:50",0.0,9.2,91.8,1007.1,290.7,1.7,2.6,331.6,0.00,8.0,14.6,"05:47:04",1
"18/10/28","06:00",0.0,8.7,91.3,1007.4,295.7,1.3,2.0,308.9,0.00,7.4,14.3,"05:50:08",1
"18/10/28","06:10",0.0,8.7,92.9,1007.4,286.2,0.6,1.6,265.3,0.00,7.7,14.5,"06:01:20",1
"18/10/28","06:20",0.0,8.8,92.7,1007.1,232.2,0.3,1.1,284.3,0.00,7.7,14.6,"06:17:20",1
"18/10/28","06:30",0.0,9.0,93.1,1007.4,276.8,1.2,1.8,310.0,0.00,8.0,14.4,"06:20:24",1
"18/10/28","06:40",0.0,9.4,92.4,1007.8,271.6,1.8,2.8,245.1,0.00,8.3,14.3,"06:34:16",1
"18/10/28","06:50",0.0,9.1,91.7,1008.1,277.1,0.8,1.8,315.4,0.00,7.9,14.4,"06:40:08",1
"18/10/28","07:00",0.0,9.4,92.0,1008.1,273.3,1.3,2.1,249.1,0.00,8.2,14.3,"06:53:12",1
"18/10/28","07:10",0.0,9.8,92.2,1008.1,297.1,1.3,2.0,313.4,0.00,8.6,14.1,"07:00:32",1
"18/10/28","07:20",0.0,9.6,92.1,1008.1,323.6,2.0,2.5,328.6,0.01,8.4,14.5,"07:14:56",1
"18/10/28","07:30",0.0,10.3,91.1,1008.3,327.5,1.5,2.7,320.0,0.02,9.0,14.4,"07:20:08",1
"18/10/28","07:40",0.0,10.4,90.1,1007.8,128.5,0.2,0.8,101.6,0.03,8.9,14.4,"07:34:56",1
"18/10/28","07:50",0.0,11.1,87.7,1008.3,131.2,0.1,0.5,292.2,0.05,9.2,14.4,"07:48:16",1
"18/10/28","08:00",0.0,11.4,85.7,1009.0,286.8,0.3,0.8,298.3,0.07,9.1,14.5,"07:52:24",1
"18/10/28","08:10",0.0,12.1,83.1,1008.8,279.7,0.7,1.1,306.7,0.09,9.4,14.6,"08:07:52",1
"18/10/28","08:20",0.0,12.2,82.5,1008.8,324.1,1.2,2.4,337.0,0.11,9.4,14.5,"08:10:02",1
"18/10/28","08:30",0.0,12.8,81.0,1009.3,325.1,1.2,2.4,334.7,0.13,9.7,14.7,"08:20:40",1
"18/10/28","08:40",0.0,13.2,78.6,1008.8,340.8,0.5,1.8,348.0,0.16,9.6,14.8,"08:35:12",1
"18/10/28","08:50",0.0,13.5,77.0,1009.3,252.8,0.5,1.1,235.4,0.19,9.6,14.8,"08:45:44",1
"18/10/28","09:00",0.0,13.9,74.8,1009.3,224.3,0.7,1.9,139.2,0.21,9.5,15.1,"08:58:40",1
"18/10/28","09:10",0.0,14.2,74.8,1009.3,219.6,1.3,2.6,234.4,0.24,9.8,15.4,"09:06:24",1
"18/10/28","09:20",0.0,14.5,74.0,1008.8,220.0,1.2,2.6,202.0,0.26,10.0,15.4,"09:10:08",1
"18/10/28","09:30",0.0,15.0,71.0,1008.8,182.0,1.0,2.4,235.3,0.28,9.8,15.6,"09:20:32",1
"18/10/28","09:40",0.0,15.2,70.1,1008.6,216.9,1.0,2.0,200.0,0.31,9.8,15.8,"09:31:12",1
"18/10/28","09:50",0.0,15.6,69.7,1008.3,220.4,1.0,2.5,225.6,0.33,10.1,15.9,"09:48:32",1
"18/10/28","10:00",0.0,15.9,69.2,1007.6,203.0,1.0,2.6,225.2,0.35,10.3,16.2,"09:56:16",1
"18/10/28","10:10",0.0,16.5,65.7,1008.1,195.7,0.7,2.2,236.4,0.36,10.1,16.4,"10:01:52",1
"18/10/28","10:20",0.0,17.1,61.9,1007.8,315.9,0.6,2.0,114.4,0.38,9.8,16.6,"10:15:28",1
"18/10/28","10:30",0.0,17.6,57.1,1007.4,234.0,1.0,2.1,201.8,0.40,9.1,16.7,"10:23:04",1
"18/10/28","10:40",0.0,17.9,52.5,1007.6,278.9,1.8,5.7,227.5,0.41,8.1,17.2,"10:37:44",1
"18/10/28","10:50",0.0,18.5,51.1,1007.4,260.4,1.6,6.4,338.9,0.43,8.3,17.3,"10:45:28",1
"18/10/28","11:00",0.0,18.5,49.2,1006.9,288.2,2.0,4.4,326.2,0.44,7.7,17.7,"10:57:20",1
"18/10/28","11:10",0.0,18.6,50.2,1006.7,302.6,1.8,6.0,338.7,0.45,8.1,17.7,"11:09:28",1
"18/10/28","11:20",0.0,18.8,49.3,1006.7,311.3,2.2,5.2,339.1,0.46,8.0,17.7,"11:14:56",1
"18/10/28","11:30",0.0,19.0,48.8,1006.4,282.7,2.0,3.4,262.3,0.46,8.0,18.0,"11:20:40",1
"18/10/28","11:40",0.0,19.0,47.5,1006.4,275.4,1.7,4.8,240.8,0.47,7.6,18.3,"11:37:52",1
"18/10/28","11:50",0.0,19.5,47.1,1006.4,277.0,1.7,4.2,225.7,0.47,8.0,18.5,"11:43:44",1
"18/10/28","12:00",0.0,19.7,44.0,1006.2,298.6,1.8,4.8,337.5,0.48,7.2,18.7,"11:52:24",1
"18/10/28","12:10",0.0,19.6,44.4,1005.5,283.3,2.3,4.3,326.5,0.47,7.2,18.8,"12:06:24",1
"18/10/28","12:20",0.0,19.5,44.4,1005.2,319.7,2.1,4.7,331.7,0.47,7.1,19.0,"12:10:32",1
"18/10/28","12:30",0.0,19.9,44.2,1005.2,302.2,1.8,5.9,339.2,0.47,7.4,19.2,"12:20:32",1
"18/10/28","12:40",0.0,20.0,45.0,1004.8,270.3,1.3,2.7,326.5,0.46,7.8,19.4,"12:35:04",1
"18/10/28","12:50",0.0,20.0,45.8,1004.8,263.1,1.1,2.8,230.2,0.44,8.0,19.6,"12:45:12",1
"18/10/28","13:00",0.0,19.8,41.5,1004.3,235.8,1.0,2.7,326.4,0.46,6.4,19.7,"12:50:08",1
"18/10/28","13:10",0.0,19.8,40.8,1004.3,288.9,1.6,4.2,295.2,0.45,6.2,19.8,"13:07:36",1
"18/10/28","13:20",0.0,20.3,43.9,1004.3,255.9,1.8,5.8,216.5,0.44,7.7,20.0,"13:11:36",1
"18/10/28","13:30",0.0,20.4,43.5,1004.1,287.3,1.5,3.7,351.1,0.42,7.6,20.1,"13:21:36",1
"18/10/28","13:40",0.0,19.9,43.4,1004.1,308.1,2.3,5.9,345.5,0.41,7.1,20.3,"13:37:36",1
"18/10/28","13:50",0.0,19.6,44.8,1004.3,215.1,3.0,5.1,228.7,0.41,7.3,20.2,"13:49:52",1
"18/10/28","14:00",0.0,20.2,43.6,1004.1,268.1,2.1,3.6,312.3,0.38,7.5,20.3,"13:56:00",1
"18/10/28","14:10",0.0,19.8,43.9,1003.6,226.4,2.8,5.1,216.2,0.36,7.2,20.5,"14:09:44",1
"18/10/28","14:20",0.0,20.1,43.4,1004.1,255.9,1.8,4.1,223.9,0.34,7.3,20.5,"14:10:08",1
"18/10/28","14:30",0.0,19.6,42.3,1003.6,237.0,2.1,4.3,223.0,0.32,6.5,20.5,"14:21:36",1
"18/10/28","14:40",0.0,19.8,44.3,1003.8,238.4,2.1,4.4,211.0,0.30,7.3,20.5,"14:39:12",1
"18/10/28","14:50",0.0,19.7,44.4,1003.8,221.9,2.0,5.1,233.9,0.27,7.3,20.4,"14:40:56",1
"18/10/28","15:00",0.0,19.7,45.1,1004.3,216.9,2.6,6.6,218.1,0.22,7.5,20.6,"14:59:36",1
"18/10/28","15:10",0.0,19.7,45.6,1003.8,247.7,2.1,4.2,233.9,0.24,7.7,20.5,"15:00:24",1
"18/10/28","15:20",0.0,19.7,46.1,1004.1,292.6,1.8,3.9,234.8,0.21,7.8,20.3,"15:18:00",1
"18/10/28","15:30",0.0,19.6,46.0,1004.1,261.7,1.3,3.6,224.5,0.18,7.7,20.2,"15:20:08",1
"18/10/28","15:40",0.0,19.4,46.3,1004.3,253.7,1.7,3.7,234.1,0.16,7.6,20.2,"15:32:00",1
"18/10/28","15:50",0.0,19.3,45.6,1004.5,288.2,1.3,3.3,264.1,0.13,7.3,20.1,"15:49:20",1
"18/10/28","16:00",0.0,19.1,45.2,1004.5,236.5,2.5,4.5,237.7,0.11,7.0,20.1,"15:50:56",1
"18/10/28","16:10",0.0,19.3,45.8,1004.8,252.1,1.7,3.3,253.8,0.08,7.4,20.2,"16:03:04",1
"18/10/28","16:20",0.0,18.9,46.2,1004.3,232.3,1.7,3.7,234.2,0.06,7.1,19.7,"16:10:02",1
"18/10/28","16:30",0.0,18.8,47.6,1004.5,244.1,1.7,3.9,227.4,0.04,7.5,19.9,"16:20:32",1
"18/10/28","16:40",0.0,18.4,48.8,1004.5,253.1,1.6,3.1,236.5,0.03,7.5,19.7,"16:34:24",1
"18/10/28","16:50",0.0,18.1,49.7,1004.8,270.0,1.3,2.6,235.7,0.01,7.5,19.2,"16:40:16",1
"18/10/28","17:00",0.0,17.6,52.0,1004.5,277.8,1.2,2.5,231.4,0.00,7.7,19.3,"16:53:04",1
"18/10/28","17:10",0.0,16.8,57.0,1005.0,324.9,1.2,2.5,334.1,0.00,8.3,19.1,"17:06:40",1
"18/10/28","17:20",0.0,16.0,60.6,1004.8,331.0,1.3,2.6,340.9,0.00,8.4,19.1,"17:19:04",1
"18/10/28","17:30",0.0,15.4,62.5,1005.0,311.4,1.5,2.6,336.9,0.00,8.3,18.9,"17:20:56",1
"18/10/28","17:40",0.0,14.8,65.6,1005.2,317.9,1.6,2.9,335.6,0.00,8.5,18.7,"17:37:12",1
"18/10/28","17:50",0.0,14.5,65.9,1005.2,309.5,1.5,3.1,322.8,0.00,8.2,18.9,"17:41:52",1
"18/10/28","18:00",0.0,14.2,67.1,1005.5,310.6,1.5,2.5,316.0,0.00,8.2,18.4,"17:52:00",1
"18/10/28","18:10",0.0,13.9,68.4,1005.2,315.0,1.2,2.0,335.4,0.00,8.2,18.3,"18:05:44",1
"18/10/28","18:20",0.0,13.4,69.6,1005.2,313.9,1.0,1.9,336.7,0.00,8.0,18.1,"18:10:08",1
"18/10/28","18:30",0.0,12.6,71.7,1005.5,292.3,0.7,1.3,313.6,0.00,7.7,18.2,"18:26:52",1
"18/10/28","18:40",0.0,12.3,75.4,1005.7,297.7,1.3,2.0,325.3,0.00,8.1,17.9,"18:31:38",1
"18/10/28","18:50",0.0,12.2,77.1,1005.5,301.3,1.6,3.2,314.2,0.00,8.4,17.8,"18:49:10",1
"18/10/28","19:00",0.0,12.5,77.9,1005.7,324.2,2.6,3.6,327.7,0.00,8.8,17.7,"18:55:04",1
"18/10/28","19:10",0.0,12.6,77.1,1005.7,302.4,2.0,3.5,334.4,0.00,8.7,17.6,"19:03:04",1
"18/10/28","19:20",0.0,12.3,77.3,1006.0,303.1,1.6,2.1,257.9,0.00,8.5,17.3,"19:10:18",1
"18/10/28","19:30",0.0,11.9,78.9,1005.5,326.4,1.3,2.0,341.3,0.00,8.4,17.6,"19:25:06",1
"18/10/28","19:40",0.0,11.4,81.0,1005.7,296.3,1.2,1.6,312.6,0.00,8.3,17.3,"19:34:36",1
"18/10/28","19:50",0.0,11.1,83.0,1005.5,317.0,1.3,1.8,315.9,0.00,8.4,17.2,"19:49:30",1
"18/10/28","20:00",0.0,10.9,83.7,1005.7,310.4,1.6,2.1,331.5,0.00,8.3,16.9,"19:56:40",1
"18/10/28","20:10",0.0,10.3,84.1,1005.7,296.5,1.2,1.8,307.2,0.00,7.8,16.7,"20:09:44",1
"18/10/28","20:20",0.0,10.2,86.5,1005.7,315.0,1.7,2.2,318.4,0.00,8.1,16.7,"20:16:40",1
"18/10/28","20:30",0.0,10.1,87.5,1005.7,323.5,1.6,2.6,325.0,0.00,8.2,16.7,"20:20:02",1
"18/10/28","20:40",0.0,10.3,88.1,1005.7,328.7,2.1,3.2,318.2,0.00,8.5,16.7,"20:30:16",1
"18/10/28","20:50",0.0,10.3,88.5,1005.5,293.9,1.5,2.4,329.1,0.00,8.5,16.5,"20:43:12",1
"18/10/28","21:00",0.0,10.3,87.8,1006.0,295.3,1.5,1.9,322.5,0.00,8.4,16.4,"20:50:48",1
"18/10/28","21:10",0.0,10.2,87.9,1006.2,300.7,1.6,2.0,324.5,0.00,8.3,16.3,"21:03:20",1
"18/10/28","21:20",0.0,10.4,88.4,1005.7,304.4,1.8,3.2,306.7,0.00,8.6,16.3,"21:18:56",1
"18/10/28","21:30",0.0,10.6,87.2,1006.0,315.6,1.7,2.6,311.0,0.00,8.6,16.4,"21:20:40",1
"18/10/28","21:40",0.0,10.5,87.4,1006.0,289.6,1.3,1.9,277.3,0.00,8.5,16.2,"21:30:02",1
"18/10/28","21:50",0.0,10.3,86.1,1006.2,315.7,1.7,2.9,322.6,0.00,8.1,15.9,"21:48:40",1
"18/10/28","22:00",0.0,9.8,88.4,1006.4,312.5,2.0,2.6,323.1,0.00,8.0,16.1,"21:50:08",1
"18/10/28","22:10",0.0,9.8,89.3,1006.0,302.5,1.3,2.0,322.0,0.00,8.2,16.1,"22:08:08",1
"18/10/28","22:20",0.0,9.7,88.9,1006.2,289.7,1.3,1.7,275.6,0.00,8.0,15.8,"22:19:04",1
"18/10/28","22:30",0.0,9.7,89.7,1006.0,293.9,1.7,2.6,319.3,0.00,8.1,15.6,"22:26:08",1
"18/10/28","22:40",0.0,9.7,89.5,1006.0,290.4,1.5,1.9,307.1,0.00,8.1,15.7,"22:37:28",1
"18/10/28","22:50",0.0,9.5,89.9,1006.2,302.2,1.7,2.1,312.9,0.00,8.0,15.5,"22:48:00",1
"18/10/28","23:00",0.0,9.6,90.3,1006.2,312.2,1.8,2.7,325.3,0.00,8.1,15.6,"22:56:40",1
"18/10/28","23:10",0.0,9.8,90.5,1006.7,298.1,1.6,2.2,314.6,0.00,8.4,15.7,"23:07:20",1
"18/10/28","23:20",0.0,9.9,90.3,1006.4,289.6,1.2,1.4,264.5,0.00,8.4,15.5,"23:13:04",1
"18/10/28","23:30",0.0,9.8,90.0,1006.4,308.3,1.6,1.9,313.9,0.00,8.3,15.7,"23:26:48",1
"18/10/28","23:40",0.0,9.6,90.6,1006.2,324.0,2.0,2.8,316.8,0.00,8.2,15.5,"23:33:12",1
"18/10/28","23:50",0.0,9.3,91.4,1006.4,297.0,1.6,2.0,313.5,0.00,8.0,15.7,"23:45:28",1
"18/10/28","24:00",0.0,9.1,91.6,1006.4,302.0,1.7,2.2,314.2,0.00,7.8,15.4,"23:55:44",1
